Regional Weather Roundup
Issued by NWS Green Bay, WI

Home | Current Version | Previous Version | Graphics & Text | Print | Product List | Glossary Off
Versions: 1 2 3 4 5 6 7 8 9 10 11 12 13 14 15 16 17 18 19 20 21 22 23 24 25 26 27 28 29 30 31 32 33 34 35 36 37 38 39 40 41 42 43 44 45 46 47 48 49 50

000
ASUS43 KGRB 031711
RWRGRB

NORTH-CENTRAL AND NORTHEAST WISCONSIN REGIONAL WEATHER ROUNDUP
NATIONAL WEATHER SERVICE GREEN BAY WI
1200 PM CDT FRI JUL 03 2015

WIZ005-009-010>012-018-019-031800-
NORTH CENTRAL WISCONSIN

CITY           SKY/WX    TMP DP  RH WIND       PRES   REMARKS
IRONWOOD       PTSUNNY   70  55  60 SW14      29.86F
MANITOWISH WTR PTSUNNY   68  56  67 SW9       29.93S
ARBOR VITAE    PTSUNNY   72  58  62 W7        29.93F
EAGLE RIVER    MOSUNNY   70  54  56 SW13      29.93S
LAND O LAKES   MOSUNNY   68  54  59 W6        29.93F
RHINELANDER    MOSUNNY   72  55  55 SW13      29.95F
PHILLIPS       MOSUNNY   71  55  56 SW10      29.94F
ANTIGO         SUNNY     70  58  66 W9        29.97F
TOMAHAWK       SUNNY     71  56  58 SW8       29.96F
MERRILL        SUNNY     73  58  59 SW9       29.97S
$$

WIZ013-073-031800-
NORTHEAST WISCONSIN

CITY           SKY/WX    TMP DP  RH WIND       PRES   REMARKS
IRON MOUNTAIN  PTSUNNY   72  56  57 W9        29.91F
MARINETTE      SUNNY     70  54  56 SW9G16    29.94F
OCONTO         SUNNY     71  56  58 W8        29.95F
$$

WIZ017-030-035>037-045-031800-
CENTRAL WISCONSIN

CITY           SKY/WX    TMP DP  RH WIND       PRES   REMARKS
MEDFORD        MOSUNNY   71  57  60 W7        29.97F
WAUSAU         SUNNY     73  55  53 SW9       29.96S
MOSINEE        MOSUNNY   70  57  64 SW5       29.99S
MARSHFIELD     SUNNY     72  56  57 W7        29.98S
WISC RAPIDS    SUNNY     72  52  49 SW5       29.99F
STEVENS POINT  SUNNY     69  52  54 W5        29.98F
WAUPACA        SUNNY     74  52  44 SW3       29.98S
SHAWANO        SUNNY     73  51  45 W6        29.97F
CLINTONVILLE   SUNNY     72  50  46 SW5       29.97F
$$

WIZ038-039-048-051-031800-
FOX VALLEY

CITY           SKY/WX    TMP DP  RH WIND       PRES   REMARKS
NWS GREEN BAY  SUNNY     72  56  57 SW8       29.97F
APPLETON       SUNNY     70  54  56 SW6       29.99S
OSHKOSH        SUNNY     72  54  53 SW9       29.98F
FOND DU LAC    SUNNY     72  54  53 VRB5      29.98F
$$

WIZ022-050-052-031800-
EAST CENTRAL WISCONSIN

CITY           SKY/WX    TMP DP  RH WIND       PRES   REMARKS
STURGEON BAY   SUNNY     70  54  56 W14       29.98F
MANITOWOC      SUNNY     70  57  63 MISG      29.97F
SHEBOYGAN      MOSUNNY   73  55  53 S6        29.98F
$$

LMZ563-521-522-541>543-031800-
LAKESHORE

STATION/POSITION TIME  TEMP    WIND        PRES    VSBY  WAVE
                       AIR SEA DIR/SP/G                  HT/PER
                 (UTC) (F)     (DEG/KT/KT) (MB)    (MI)  (FT/S)
SHEBOYGAN LKSHOR 1700   59     140/ 12/ 12 1015.4F
KEWAUNEE LKSHORE 1600   62     180/  9/ 12 1014.4F
TWO RIVERS CG    1625   62                 1015.8      6   0
NORTHPORT PIER   1600   68     240/  6/ 11 1014.2F
N MID LAKE BUOY  1650   49 44  200/ 12/ 14 1014.4F         1/ 3
SISTER BAY LKSHO 1644   71     280/ 11/ 12   N/A
CHAMBERS ISLAND  1600   67     190/  6/ 14 1014.6F
MENOMINEE LKSHOR 1600   68     210/ 10/ 13 1015.1F
$$



USA.gov is the U.S. government's official web portal to all federal, state and local government web resources and services.